DW4152 Weather Reports


Display with metric or nautical units.
time (UTC)temp
F
wind
direction
speed
MPH
gust
MPH
rain 1hr
in
rain 24hr
in
rain mn
in
humidity
%
barometer
mb
20260906120051 72 165 0.0 0.0 0.00 0.25 0.01 99 1011.8
20260906114553 72 165 0.0 0.0 0.00 0.25 0.01 99 1011.7
20260906113049 72 165 0.0 0.0 0.00 0.25 0.01 99 1011.7
20260906111546 72 165 0.0 0.0 0.00 0.25 0.01 99 1011.8
20260906110044 72 165 0.0 0.0 0.00 0.25 0.01 99 1011.7
20260906104542 72 165 0.0 0.0 0.00 0.25 0.01 99 1011.5
20260906103045 72 165 0.0 0.0 0.00 0.25 0.01 99 1011.2
20260906101542 72 165 0.0 0.0 0.00 0.25 0.01 99 1011.1
20260906100038 72 165 0.0 0.0 0.00 0.25 0.01 99 1010.7
20260906094537 72 165 0.0 0.0 0.00 0.25 0.01 99 1010.8
20260906093041 73 217 0.0 0.0 0.00 0.25 0.01 99 1010.7
20260906091550 73 217 0.0 0.0 0.00 0.25 0.01 99 1010.4
20260906090036 73 217 0.0 0.0 0.00 0.25 0.01 99 1010.3
20260906084536 73 217 0.0 0.0 0.00 0.25 0.01 99 1010.1
20260906083037 73 217 0.0 0.0 0.00 0.25 0.01 99 1010.1
20260906081536 73 217 0.0 0.0 0.00 0.25 0.01 99 1010.2
20260906080038 73 221 0.0 0.0 0.00 0.25 0.01 99 1010.0
20260906074540 73 221 0.0 0.0 0.01 0.25 0.01 99 1009.9
20260906073034 73 221 0.0 0.0 0.01 0.25 0.01 99 1009.7
20260906071531 72 221 0.0 0.0 0.01 0.25 0.01 99 1009.9
20260906070031 72 221 0.0 0.0 0.01 0.25 0.01 99 1009.9
20260906064530 72 221 0.0 0.0 0.00 0.24 0.00 98 1009.9
20260906063030 73 221 0.0 0.0 0.00 0.24 0.00 99 1010.0
20260906061527 73 221 0.0 0.0 0.00 0.24 0.00 99 1010.1
20260906060026 73 221 0.0 0.0 0.00 0.24 0.00 98 1010.0
20260906054527 73 221 0.0 0.0 0.00 0.24 0.00 98 1010.1
20260906053021 73 221 0.0 0.0 0.00 0.24 0.00 99 1010.3
20260906051516 73 221 0.0 0.0 0.00 0.24 0.00 99 1010.4
20260906050013 74 221 0.0 0.0 0.00 0.24 0.00 98 1010.5
20260906044508 74 221 0.0 0.0 0.00 0.24 0.00 98 1010.5
20260906043005 74 221 0.0 0.0 0.00 0.24 0.00 98 1010.5
20260906041602 74 221 0.0 0.0 0.00 0.24 0.00 98 1010.7
20260906040055 73 221 0.0 0.0 0.00 0.24 0.00 98 1010.8
20260906034554 74 221 0.0 0.0 0.00 0.24 0.23 98 1010.8
20260906033108 74 221 0.0 0.0 0.00 0.24 0.23 98 1010.8
20260906031552 74 221 0.0 0.0 0.00 0.24 0.23 98 1010.6
20260906030054 74 221 0.0 0.0 0.00 0.24 0.23 98 1010.7
20260906024553 74 221 0.0 0.0 0.00 0.24 0.23 98 1010.5
20260906023054 74 221 0.0 0.0 0.00 0.24 0.23 98 1010.5
20260906021552 75 221 0.0 0.0 0.00 0.24 0.23 98 1010.4
20260906020104 75 221 0.0 0.0 0.00 0.24 0.23 98 1010.4
20260906014549 75 221 0.0 0.0 0.00 0.24 0.23 98 1010.4
20260906013058 75 221 0.0 0.0 0.00 0.24 0.23 98 1010.5
20260906011600 75 221 0.0 0.0 0.00 0.24 0.23 98 1010.2
20260906010048 76 221 0.0 0.0 0.00 0.24 0.23 97 1009.8
20260906004553 76 221 0.0 0.0 0.00 0.24 0.23 97 1009.7
20260906003047 76 221 0.0 0.0 0.00 0.24 0.23 97 1009.5
20260906001548 76 221 0.0 0.0 0.00 0.24 0.23 97 1009.2
20260906000054 77 221 0.0 0.0 0.00 0.24 0.23 97 1009.2
20260905234548 77 221 0.0 0.0 0.00 0.32 0.23 97 1009.0
20260905233046 77 221 0.0 0.0 0.00 0.32 0.23 96 1009.0
20260905231544 77 221 0.0 0.0 0.00 0.32 0.23 96 1008.8
20260905230044 77 221 0.0 0.0 0.00 0.32 0.23 96 1008.5
20260905224550 78 221 0.0 0.0 0.00 0.38 0.23 95 1008.6
20260905223042 78 221 0.0 0.0 0.00 0.38 0.23 95 1008.5
20260905221540 78 221 0.0 0.0 0.00 0.38 0.23 96 1008.7
20260905220018 77 221 0.0 0.0 0.00 0.38 0.23 96 1009.0
20260905214519 76 221 0.0 0.0 0.00 0.38 0.23 97 1009.1
20260905213016 76 221 0.0 0.0 0.00 0.38 0.23 98 1008.8
20260905211515 76 221 0.0 0.0 0.00 0.38 0.23 98 1009.0
20260905210015 75 221 0.0 0.0 0.00 0.38 0.23 97 1009.5
20260905204515 75 221 0.0 0.0 0.00 0.38 0.23 98 1009.7
20260905203014 75 221 0.0 0.0 0.00 0.38 0.23 97 1009.2
20260905201512 74 221 0.0 0.0 0.00 0.38 0.23 97 1008.6
20260905200020 74 221 0.0 0.0 0.01 0.38 0.23 97 1008.7
20260905194513 74 221 0.0 0.0 0.09 0.38 0.23 96 1009.1
20260905193010 74 221 0.0 2.0 0.23 0.38 0.23 95 1008.7
20260905191507 75 207 0.0 0.0 0.23 0.38 0.23 94 1009.3
20260905190004 76 207 0.0 3.0 0.22 0.37 0.22 92 1009.1
20260905184620 79 46 0.0 10.0 0.14 0.28 0.14 82 1009.8
20260905183055 91 126 0.0 0.0 0.00 0.15 0.00 69 1009.6
20260905181559 93 219 0.0 0.0 0.00 0.15 0.00 67 1008.8
20260905180053 95 219 0.0 2.0 0.00 0.15 0.00 60 1008.9
20260905174549 95 165 1.0 6.0 0.00 0.15 0.00 62 1009.6
20260905173044 93 216 0.0 1.0 0.00 0.15 0.00 64 1009.8
20260905171543 92 199 0.0 4.0 0.00 0.15 0.00 64 1010.2
20260905170038 92 240 0.0 3.0 0.00 0.15 0.00 71 1010.4
20260905164534 91 214 0.0 3.0 0.00 0.15 0.00 68 1010.6
20260905163029 90 228 0.0 0.0 0.00 0.15 0.00 72 1010.9